Location: Kudlacze
(49.7800°N, 20.0200°E)
Time: 07:19:09
(UTC+00:00)

Envisat - Pass Details

Date: 02 October 2021
Orbit: 764 x 766 km, 98.2° (Epoch: 25 October)

Event Time Altitude Azimuth Distance (km) Brightness Sun altitude
Rises 02:55:23 0° 23° (NNE) 3,244 6.8 -17.8°
Reaches altitude 10° 02:58:05 10° 36° (NE) 2,312 6.2 -17.3°
Maximum altitude 03:02:18 26° 92° (E) 1,488 5.3 -16.7°
Drops below altitude 10° 03:06:29 10° 148° (SSE) 2,297 5.7 -16.0°
Sets 03:09:09 0° 161° (SSE) 3,217 6.3 -15.6°
